Location: Peebles
(55.6412°N, 3.1714°W)
Time: 19:07:42
(UTC+01:00)

Envisat - Pass Details

Date: 01 March 2024
Orbit: 762 x 764 km, 98.3° (Epoch: 20 April)

Event Time Altitude Azimuth Distance (km) Brightness Sun altitude
Rises 03:37:59 0° 17° (NNE) 3,246 6.9 -28.6°
Reaches altitude 10° 03:40:20 10° 21° (NNE) 2,315 6.1 -28.4°
Maximum altitude 03:45:23 63° 102° (ESE) 856 3.3 -27.7°
Enters shadow 03:45:54 59° 133° (SE) 883 3.3 -27.7°
